Location: Tafessasset
(32.5899°N, 5.4824°W)
Time: 06:20:29
(UTC+00:00)

Cosmos 1943 Rocket - Pass Details

Date: 18 February 2020
Orbit: 813 x 842 km, 71.0° (Epoch: 07 April)

Event Time Altitude Azimuth Distance (km) Brightness Sun altitude
Rises 05:55:51 0° 336° (NNW) 3,340 5.0 -14.7°
Reaches altitude 10° 05:58:17 10° 334° (NNW) 2,404 4.3 -14.2°
Maximum altitude 06:03:44 68° 252° (WSW) 873 2.1 -13.0°
Drops below altitude 10° 06:09:10 10° 170° (S) 2,397 4.8 -11.9°
Sets 06:11:36 0° 168° (SSE) 3,329 5.6 -11.4°
